Location: Auckland
(36.8670°S, 174.7670°E)
Time: 13:36:18
(UTC+12:00)

A-11 Canister half - Pass Details

Date: 25 July 2019
Orbit: 1526 x 1683 km, 47.3° (Epoch: 21 August)

Event Time Altitude Azimuth Distance (km) Brightness Sun altitude
Rises 12:09:54 0° 245° (WSW) 4,754 11.3 33.2°
Reaches altitude 10° 12:13:06 10° 239° (WSW) 3,789 10.9 33.3°
Maximum altitude 12:22:31 53° 163° (SSE) 1,925 9.6 33.4°
Drops below altitude 10° 12:32:13 10° 87° (E) 3,901 11.2 33.4°
Sets 12:35:32 0° 82° (E) 4,903 11.7 33.3°
